EJA303 KCRG-KFRG

Flight info

Callsign EJA303
Flight time 1h 43m
Altitude 36000
Route SSI WISPR JROSS GEARS SIE CAMRN4
Aircraft C700/L-V/N

Departure

Time 2026-05-04 01:48
Airport Jacksonville Executive at Craig Airport (KCRG)

Arrival

Time 2026-05-04 03:32
Airport Republic Airport (KFRG)
Time Latitude Longitude Altitude Speed Heading
2026-05-04 01:34 30.33808 -81.51651 40 ft 0 kts 227°
2026-05-04 01:43 30.33802 -81.51651 40 ft 4 kts 176°
2026-05-04 01:43 30.33804 -81.51623 40 ft 5 kts 72°
2026-05-04 01:43 30.33828 -81.51584 40 ft 7 kts 44°
2026-05-04 01:43 30.33857 -81.51543 41 ft 4 kts 93°
2026-05-04 01:44 30.33838 -81.51510 41 ft 6 kts 133°
2026-05-04 01:44 30.33803 -81.51466 41 ft 9 kts 135°
2026-05-04 01:44 30.33751 -81.51405 42 ft 12 kts 135°
2026-05-04 01:44 30.33687 -81.51331 43 ft 14 kts 136°
2026-05-04 01:45 30.33606 -81.51305 43 ft 14 kts 223°
2026-05-04 01:45 30.33531 -81.51393 43 ft 16 kts 226°
2026-05-04 01:45 30.33355 -81.51592 43 ft 19 kts 223°
2026-05-04 01:46 30.33258 -81.51698 44 ft 19 kts 224°
2026-05-04 01:46 30.33161 -81.51814 44 ft 21 kts 227°
2026-05-04 01:46 30.33058 -81.51927 43 ft 20 kts 220°
2026-05-04 01:46 30.32975 -81.51982 43 ft 9 kts 152°
2026-05-04 01:47 30.32953 -81.51962 43 ft 0 kts 138°
2026-05-04 01:47 30.32946 -81.51954 43 ft 5 kts 135°
2026-05-04 01:47 30.32909 -81.51903 43 ft 10 kts 115°
2026-05-04 01:47 30.32937 -81.51834 43 ft 12 kts 44°
2026-05-04 01:48 30.33194 -81.51543 43 ft 94 kts 45°
2026-05-04 01:48 30.33823 -81.50813 114 ft 153 kts 47°
2026-05-04 01:48 30.34603 -81.49964 826 ft 168 kts 45°
2026-05-04 01:48 30.35558 -81.48936 1626 ft 201 kts 45°
2026-05-04 01:49 30.36790 -81.48193 2377 ft 208 kts 11°
2026-05-04 01:49 30.38257 -81.48234 3150 ft 218 kts 357°
2026-05-04 01:49 30.39859 -81.48385 3942 ft 244 kts 356°
2026-05-04 01:49 30.41624 -81.48528 4747 ft 260 kts 356°
2026-05-04 01:50 30.43438 -81.48646 5504 ft 263 kts 356°
2026-05-04 01:50 30.45279 -81.48744 6262 ft 266 kts 357°
2026-05-04 01:50 30.47140 -81.48830 6989 ft 269 kts 356°
2026-05-04 01:50 30.49038 -81.48904 7715 ft 275 kts 356°
2026-05-04 01:51 30.50971 -81.48969 8481 ft 280 kts 356°
2026-05-04 01:51 30.52913 -81.49246 9235 ft 283 kts 348°
2026-05-04 01:51 30.54856 -81.49582 10001 ft 288 kts 352°
2026-05-04 01:51 30.56903 -81.49623 10712 ft 306 kts
2026-05-04 01:52 30.59093 -81.49327 11456 ft 324 kts
2026-05-04 01:52 30.61341 -81.48982 12200 ft 327 kts
2026-05-04 01:52 30.63611 -81.48767 12955 ft 328 kts 359°
2026-05-04 01:52 30.65907 -81.48584 13729 ft 332 kts 359°
2026-05-04 01:53 30.68223 -81.48351 14458 ft 337 kts
2026-05-04 01:53 30.70574 -81.48094 15173 ft 341 kts
2026-05-04 01:53 30.72960 -81.47850 15900 ft 347 kts 359°
2026-05-04 01:53 30.75397 -81.47612 16653 ft 354 kts 359°
2026-05-04 01:54 30.77870 -81.47363 17410 ft 360 kts 359°
2026-05-04 01:54 30.80355 -81.47108 18190 ft 365 kts 359°
2026-05-04 01:54 30.82072 -81.46933 18684 ft 370 kts 359°
2026-05-04 01:54 30.85516 -81.46586 19609 ft 378 kts 359°
2026-05-04 01:55 30.88162 -81.46317 20324 ft 384 kts 359°
2026-05-04 01:55 30.90837 -81.46045 21058 ft 389 kts 358°
2026-05-04 01:55 30.92636 -81.45862 21557 ft 393 kts 358°
2026-05-04 01:55 30.95387 -81.45583 22318 ft 400 kts 358°
2026-05-04 01:56 30.98181 -81.45300 23124 ft 406 kts 358°
2026-05-04 01:56 31.01022 -81.45010 23894 ft 412 kts 358°
2026-05-04 01:56 31.03908 -81.44715 24579 ft 418 kts 358°
2026-05-04 01:56 31.06819 -81.44218 25274 ft 428 kts
2026-05-04 01:57 31.09752 -81.43540 25992 ft 431 kts
2026-05-04 01:57 31.12709 -81.42886 26726 ft 434 kts
2026-05-04 01:57 31.15692 -81.42235 27480 ft 436 kts
2026-05-04 01:57 31.18668 -81.41571 28249 ft 437 kts
2026-05-04 01:58 31.21661 -81.40896 29065 ft 438 kts
2026-05-04 01:58 31.24621 -81.40234 29922 ft 438 kts
2026-05-04 01:58 31.27647 -81.39561 30680 ft 437 kts
2026-05-04 01:58 31.30596 -81.38903 31390 ft 435 kts
2026-05-04 01:59 31.33560 -81.38238 32127 ft 432 kts
2026-05-04 01:59 31.36503 -81.37578 32888 ft 429 kts
2026-05-04 01:59 31.39417 -81.36925 33657 ft 424 kts
2026-05-04 01:59 31.42301 -81.36279 34400 ft 418 kts
2026-05-04 02:00 31.45134 -81.35643 35081 ft 411 kts
2026-05-04 02:00 31.47927 -81.35014 35782 ft 404 kts 360°
2026-05-04 02:00 31.50687 -81.34399 36164 ft 409 kts 359°
2026-05-04 02:00 31.53533 -81.33780 36149 ft 423 kts
2026-05-04 02:01 31.56477 -81.33119 36144 ft 437 kts
2026-05-04 02:01 31.59502 -81.32427 36137 ft 450 kts
2026-05-04 02:01 31.62588 -81.31730 36144 ft 462 kts
2026-05-04 02:01 31.65786 -81.31015 36145 ft 474 kts
2026-05-04 02:02 31.69065 -81.30278 36141 ft 485 kts
2026-05-04 02:02 31.72436 -81.29514 36133 ft 497 kts
2026-05-04 02:02 31.75830 -81.28746 36135 ft 508 kts
2026-05-04 02:02 31.79336 -81.27953 36111 ft 519 kts
2026-05-04 02:03 31.86538 -81.26326 36119 ft 534 kts
2026-05-04 02:03 31.93752 -81.24675 36103 ft 515 kts
2026-05-04 02:04 32.00651 -81.22844 36095 ft 509 kts 11°
2026-05-04 02:04 32.07123 -81.19132 36150 ft 527 kts 28°
2026-05-04 02:05 32.13072 -81.13974 36156 ft 531 kts 32°
2026-05-04 02:05 32.19018 -81.08766 36153 ft 533 kts 32°
2026-05-04 02:06 32.24972 -81.03540 36147 ft 544 kts 32°
2026-05-04 02:06 32.31096 -80.98150 36157 ft 550 kts 32°
2026-05-04 02:07 32.37173 -80.92790 36133 ft 536 kts 32°
2026-05-04 02:07 32.43114 -80.87555 36132 ft 533 kts 32°
2026-05-04 02:08 32.49114 -80.82251 36142 ft 542 kts 32°
2026-05-04 02:08 32.55148 -80.76902 36177 ft 540 kts 32°
2026-05-04 02:09 32.61108 -80.71617 36141 ft 535 kts 32°
2026-05-04 02:09 32.67057 -80.66332 36133 ft 534 kts 32°
2026-05-04 02:10 32.73159 -80.61294 36129 ft 532 kts 24°
2026-05-04 02:10 32.79569 -80.56867 36135 ft 534 kts 25°
2026-05-04 02:11 32.85950 -80.52409 36119 ft 527 kts 25°
2026-05-04 02:11 32.92304 -80.48007 36118 ft 530 kts 25°
2026-05-04 02:12 32.98688 -80.43542 36126 ft 534 kts 25°
2026-05-04 02:12 33.05056 -80.39099 36137 ft 533 kts 25°
2026-05-04 02:13 33.11436 -80.34632 36137 ft 531 kts 25°
2026-05-04 02:13 33.17800 -80.30173 36130 ft 529 kts 25°
2026-05-04 02:14 33.24156 -80.25711 36131 ft 530 kts 25°
2026-05-04 02:14 33.30522 -80.21233 36165 ft 531 kts 25°
2026-05-04 02:15 33.36878 -80.16753 36137 ft 528 kts 25°
2026-05-04 02:15 33.43218 -80.12282 36125 ft 531 kts 25°
2026-05-04 02:16 33.49583 -80.07781 36135 ft 535 kts 25°
2026-05-04 02:16 33.55985 -80.03245 36163 ft 533 kts 25°
2026-05-04 02:17 33.62326 -79.98746 36142 ft 525 kts 25°
2026-05-04 02:17 33.68616 -79.94281 36144 ft 526 kts 25°
2026-05-04 02:18 33.74932 -79.89783 36148 ft 529 kts 25°
2026-05-04 02:18 33.81287 -79.85251 36126 ft 530 kts 25°
2026-05-04 02:19 33.87550 -79.80773 36119 ft 521 kts 25°
2026-05-04 02:19 33.93803 -79.76303 36114 ft 526 kts 25°
2026-05-04 02:20 34.00141 -79.71762 36128 ft 532 kts 25°
2026-05-04 02:20 34.06437 -79.67236 36120 ft 528 kts 25°
2026-05-04 02:21 34.12700 -79.62733 36120 ft 521 kts 25°
2026-05-04 02:21 34.18937 -79.58241 36121 ft 524 kts 25°
2026-05-04 02:22 34.25211 -79.53711 36137 ft 527 kts 25°
2026-05-04 02:22 34.31505 -79.49161 36139 ft 526 kts 25°
2026-05-04 02:23 34.37739 -79.44641 36128 ft 519 kts 25°
2026-05-04 02:23 34.43954 -79.40131 36118 ft 523 kts 25°
2026-05-04 02:24 34.50201 -79.35597 36113 ft 528 kts 25°
2026-05-04 02:24 34.56490 -79.31010 36113 ft 525 kts 25°
2026-05-04 02:25 34.62714 -79.26473 36114 ft 520 kts 25°
2026-05-04 02:25 34.68934 -79.21928 36115 ft 523 kts 25°
2026-05-04 02:26 34.75188 -79.17349 36115 ft 526 kts 25°
2026-05-04 02:26 34.81454 -79.12753 36111 ft 524 kts 26°
2026-05-04 02:27 34.87661 -79.08191 36107 ft 519 kts 25°
2026-05-04 02:27 34.93861 -79.03627 36109 ft 523 kts 25°
2026-05-04 02:28 35.00123 -78.99016 36152 ft 528 kts 25°
2026-05-04 02:28 35.06347 -78.94410 36103 ft 522 kts 25°
2026-05-04 02:29 35.12534 -78.89837 36096 ft 519 kts 25°
2026-05-04 02:29 35.18740 -78.85236 36109 ft 523 kts 26°
2026-05-04 02:30 35.24989 -78.80594 36111 ft 525 kts 26°
2026-05-04 02:30 35.31182 -78.75982 36102 ft 517 kts 26°
2026-05-04 02:31 35.37330 -78.71405 36136 ft 517 kts 26°
2026-05-04 02:31 35.43502 -78.66794 36130 ft 522 kts 25°
2026-05-04 02:32 35.49741 -78.62129 36131 ft 527 kts 25°
2026-05-04 02:32 35.55948 -78.57472 36113 ft 525 kts 25°
2026-05-04 02:33 35.62169 -78.52803 36108 ft 522 kts 25°
2026-05-04 02:33 35.68362 -78.48145 36109 ft 522 kts 25°
2026-05-04 02:34 35.74556 -78.43476 36117 ft 520 kts 26°
2026-05-04 02:34 35.80689 -78.38844 36108 ft 516 kts 25°
2026-05-04 02:35 35.86830 -78.34203 36123 ft 519 kts 26°
2026-05-04 02:35 35.93009 -78.29518 36164 ft 521 kts 25°
2026-05-04 02:36 35.99166 -78.24842 36132 ft 517 kts 25°
2026-05-04 02:36 36.05242 -78.20221 36125 ft 514 kts 25°
2026-05-04 02:37 36.11342 -78.15576 36117 ft 517 kts 26°
2026-05-04 02:37 36.17482 -78.10886 36112 ft 521 kts 25°
2026-05-04 02:38 36.23644 -78.06172 36111 ft 519 kts 25°
2026-05-04 02:38 36.29765 -78.01482 36102 ft 516 kts 25°
2026-05-04 02:39 36.35825 -77.96831 36095 ft 516 kts 25°
2026-05-04 02:39 36.41945 -77.92123 36109 ft 520 kts 25°
2026-05-04 02:40 36.48116 -77.87369 36101 ft 522 kts 25°
2026-05-04 02:40 36.54273 -77.82612 36102 ft 520 kts 25°
2026-05-04 02:41 36.60404 -77.77871 36139 ft 518 kts 25°
2026-05-04 02:41 36.66518 -77.73132 36113 ft 515 kts 25°
2026-05-04 02:42 36.72572 -77.68433 36114 ft 516 kts 25°
2026-05-04 02:42 36.78681 -77.63681 36114 ft 518 kts 25°
2026-05-04 02:43 36.84813 -77.58900 36088 ft 521 kts 25°
2026-05-04 02:43 36.90923 -77.54130 36107 ft 521 kts 25°
2026-05-04 02:44 36.97073 -77.49317 36093 ft 522 kts 25°
2026-05-04 02:44 37.03224 -77.44494 36095 ft 521 kts 25°
2026-05-04 02:45 37.08325 -77.40474 36103 ft 521 kts 26°
2026-05-04 02:45 37.13867 -77.34447 36097 ft 531 kts 39°
2026-05-04 02:46 37.19086 -77.27912 36100 ft 530 kts 39°
2026-05-04 02:46 37.24338 -77.21345 36091 ft 533 kts 39°
2026-05-04 02:47 37.29605 -77.14726 36099 ft 536 kts 39°
2026-05-04 02:47 37.34869 -77.08109 36096 ft 535 kts 39°
2026-05-04 02:48 37.40127 -77.01479 36094 ft 534 kts 39°
2026-05-04 02:48 37.45342 -76.94893 36093 ft 534 kts 39°
2026-05-04 02:49 37.50580 -76.88262 36092 ft 533 kts 39°
2026-05-04 02:49 37.55802 -76.81640 36104 ft 533 kts 39°
2026-05-04 02:50 37.61042 -76.74981 36109 ft 536 kts 39°
2026-05-04 02:50 37.66309 -76.68270 36105 ft 538 kts 39°
2026-05-04 02:51 37.71526 -76.61609 36094 ft 536 kts 39°
2026-05-04 02:51 37.76761 -76.54913 36081 ft 534 kts 39°
2026-05-04 02:52 37.81974 -76.48231 36076 ft 533 kts 39°
2026-05-04 02:52 37.87230 -76.41482 36122 ft 541 kts 39°
2026-05-04 02:53 37.92461 -76.34737 36096 ft 536 kts 39°
2026-05-04 02:53 37.97655 -76.28043 36076 ft 533 kts 39°
2026-05-04 02:54 38.02863 -76.21308 36082 ft 536 kts 39°
2026-05-04 02:54 38.08104 -76.14514 36102 ft 540 kts 39°
2026-05-04 02:55 38.15949 -76.04321 36079 ft 535 kts 39°
2026-05-04 02:56 38.21121 -75.97583 36077 ft 535 kts 39°
2026-05-04 02:56 38.26325 -75.90788 36085 ft 537 kts 39°
2026-05-04 02:57 38.31542 -75.83961 36095 ft 537 kts 39°
2026-05-04 02:57 38.36746 -75.77134 36079 ft 535 kts 39°
2026-05-04 02:58 38.41937 -75.70313 36081 ft 537 kts 39°
2026-05-04 02:58 38.47136 -75.63463 36125 ft 538 kts 39°
2026-05-04 02:59 38.52334 -75.56599 36090 ft 536 kts 39°
2026-05-04 02:59 38.57464 -75.49812 36089 ft 533 kts 39°
2026-05-04 03:00 38.62629 -75.42965 36075 ft 535 kts 39°
2026-05-04 03:00 38.67815 -75.36073 36074 ft 539 kts 39°
2026-05-04 03:01 38.73003 -75.29161 36089 ft 537 kts 39°
2026-05-04 03:01 38.78175 -75.22258 36085 ft 536 kts 39°
2026-05-04 03:02 38.83297 -75.15404 36080 ft 534 kts 39°
2026-05-04 03:02 38.88435 -75.08516 36078 ft 534 kts 40°
2026-05-04 03:03 38.93569 -75.01615 36074 ft 534 kts 39°
2026-05-04 03:03 38.98713 -74.94690 36076 ft 537 kts 39°
2026-05-04 03:04 39.03881 -74.87710 36079 ft 539 kts 40°
2026-05-04 03:04 39.09040 -74.80746 36073 ft 533 kts 38°
2026-05-04 03:05 39.14573 -74.74639 36062 ft 511 kts 32°
2026-05-04 03:05 39.17226 -74.71742 36004 ft 488 kts 32°
2026-05-04 03:05 39.19777 -74.68967 35879 ft 470 kts 31°
2026-05-04 03:05 39.22288 -74.66277 34892 ft 475 kts 31°
2026-05-04 03:06 39.24784 -74.63602 34831 ft 462 kts 32°
2026-05-04 03:06 39.27218 -74.60942 34935 ft 461 kts 32°
2026-05-04 03:06 39.29704 -74.58248 35030 ft 471 kts 32°
2026-05-04 03:06 39.32261 -74.55494 35036 ft 485 kts 32°
2026-05-04 03:07 39.34881 -74.52648 35038 ft 499 kts 32°
2026-05-04 03:07 39.40210 -74.46809 35060 ft 492 kts 32°
2026-05-04 03:07 39.42785 -74.43997 35040 ft 477 kts 32°
2026-05-04 03:08 39.45288 -74.41278 34959 ft 464 kts 32°
2026-05-04 03:08 39.47740 -74.38608 34854 ft 457 kts 32°
2026-05-04 03:08 39.50173 -74.35950 34743 ft 458 kts 32°
2026-05-04 03:08 39.52600 -74.33297 34557 ft 468 kts 32°
2026-05-04 03:09 39.55134 -74.30536 33909 ft 483 kts 32°
2026-05-04 03:09 39.57707 -74.27702 33219 ft 482 kts 32°
2026-05-04 03:09 39.60236 -74.24901 32588 ft 473 kts 32°
2026-05-04 03:09 39.62725 -74.22166 31988 ft 464 kts 31°
2026-05-04 03:10 39.65164 -74.19498 31382 ft 455 kts 31°
2026-05-04 03:10 39.67561 -74.16861 30792 ft 447 kts 31°
2026-05-04 03:10 39.69914 -74.14261 30218 ft 439 kts 31°
2026-05-04 03:10 39.72223 -74.11714 29563 ft 431 kts 31°
2026-05-04 03:11 39.74464 -74.09243 28913 ft 424 kts 31°
2026-05-04 03:11 39.76699 -74.06775 28273 ft 418 kts 31°
2026-05-04 03:11 39.78895 -74.04346 27656 ft 411 kts 31°
2026-05-04 03:11 39.81055 -74.01955 27100 ft 404 kts 31°
2026-05-04 03:12 39.83182 -73.99612 26517 ft 396 kts 30°
2026-05-04 03:12 39.85414 -73.97651 25932 ft 379 kts 19°
2026-05-04 03:12 39.87713 -73.96042 25388 ft 372 kts 18°
2026-05-04 03:12 39.89976 -73.94444 24842 ft 368 kts 19°
2026-05-04 03:13 39.92206 -73.92856 24319 ft 363 kts 19°
2026-05-04 03:13 39.94411 -73.91292 23809 ft 359 kts 19°
2026-05-04 03:13 39.96607 -73.89744 22913 ft 362 kts 19°
2026-05-04 03:13 39.98835 -73.88172 21966 ft 366 kts 20°
2026-05-04 03:14 40.01086 -73.86612 21088 ft 365 kts 18°
2026-05-04 03:14 40.03453 -73.85505 20186 ft 358 kts
2026-05-04 03:14 40.05858 -73.84688 19319 ft 357 kts
2026-05-04 03:14 40.08260 -73.83858 18413 ft 358 kts
2026-05-04 03:15 40.10674 -73.83017 17348 ft 360 kts
2026-05-04 03:15 40.13093 -73.82177 16291 ft 360 kts
2026-05-04 03:15 40.15478 -73.81353 15295 ft 358 kts 10°
2026-05-04 03:15 40.17889 -73.80517 14310 ft 357 kts 11°
2026-05-04 03:16 40.20254 -73.79694 13639 ft 346 kts 11°
2026-05-04 03:16 40.22550 -73.78893 12963 ft 335 kts 11°
2026-05-04 03:16 40.24781 -73.78120 12306 ft 326 kts 10°
2026-05-04 03:16 40.26946 -73.77369 11675 ft 317 kts 10°
2026-05-04 03:17 40.29060 -73.76633 11050 ft 310 kts 10°
2026-05-04 03:17 40.31121 -73.75916 10451 ft 303 kts 10°
2026-05-04 03:17 40.33136 -73.75214 9867 ft 297 kts 10°
2026-05-04 03:17 40.35093 -73.74532 9236 ft 292 kts 10°
2026-05-04 03:18 40.37028 -73.73857 8723 ft 284 kts 10°
2026-05-04 03:18 40.38905 -73.73201 8342 ft 274 kts
2026-05-04 03:18 40.40721 -73.72581 7967 ft 266 kts
2026-05-04 03:18 40.42490 -73.71968 7580 ft 259 kts
2026-05-04 03:19 40.44216 -73.71363 7198 ft 254 kts
2026-05-04 03:19 40.45913 -73.70768 6815 ft 251 kts
2026-05-04 03:19 40.47594 -73.70180 6439 ft 249 kts
2026-05-04 03:19 40.49262 -73.69597 6048 ft 248 kts
2026-05-04 03:20 40.50899 -73.69021 5635 ft 239 kts
2026-05-04 03:20 40.52479 -73.68464 5229 ft 231 kts
2026-05-04 03:20 40.54006 -73.67929 4815 ft 225 kts
2026-05-04 03:20 40.55483 -73.67409 4671 ft 210 kts
2026-05-04 03:21 40.56828 -73.66933 4665 ft 197 kts
2026-05-04 03:21 40.58146 -73.66477 4670 ft 198 kts
2026-05-04 03:21 40.59501 -73.66007 4680 ft 204 kts
2026-05-04 03:21 40.60889 -73.65518 4691 ft 209 kts
2026-05-04 03:22 40.62300 -73.65021 4691 ft 209 kts
2026-05-04 03:22 40.63696 -73.64524 4695 ft 206 kts
2026-05-04 03:22 40.65073 -73.64040 4690 ft 203 kts
2026-05-04 03:22 40.66416 -73.63568 4688 ft 202 kts
2026-05-04 03:23 40.67781 -73.63088 4698 ft 204 kts
2026-05-04 03:23 40.69160 -73.62602 4701 ft 205 kts
2026-05-04 03:23 40.70534 -73.62117 4700 ft 204 kts
2026-05-04 03:23 40.71911 -73.61631 4699 ft 204 kts
2026-05-04 03:24 40.73286 -73.61145 4697 ft 204 kts
2026-05-04 03:24 40.74658 -73.60661 4692 ft 204 kts
2026-05-04 03:24 40.76028 -73.60176 4689 ft 204 kts
2026-05-04 03:24 40.77407 -73.59690 4694 ft 204 kts
2026-05-04 03:25 40.78779 -73.59204 4685 ft 204 kts
2026-05-04 03:25 40.80150 -73.58718 4695 ft 204 kts
2026-05-04 03:25 40.81517 -73.58234 4732 ft 203 kts
2026-05-04 03:25 40.82861 -73.57759 4761 ft 202 kts
2026-05-04 03:26 40.84220 -73.57277 4764 ft 202 kts
2026-05-04 03:26 40.85580 -73.56793 4777 ft 202 kts
2026-05-04 03:26 40.86941 -73.56307 4808 ft 203 kts
2026-05-04 03:26 40.88245 -73.55487 4809 ft 213 kts 25°
2026-05-04 03:27 40.89390 -73.54169 4739 ft 225 kts 41°
2026-05-04 03:27 40.90256 -73.52373 4474 ft 238 kts 59°
2026-05-04 03:27 40.90688 -73.50260 4219 ft 234 kts 78°
2026-05-04 03:27 40.90728 -73.48168 3941 ft 221 kts 86°
2026-05-04 03:28 40.90596 -73.46190 3662 ft 213 kts 103°
2026-05-04 03:28 40.90016 -73.44446 3401 ft 204 kts 124°
2026-05-04 03:28 40.89103 -73.43077 3143 ft 194 kts 145°
2026-05-04 03:28 40.88001 -73.42177 2890 ft 183 kts 164°
2026-05-04 03:29 40.86821 -73.41740 2647 ft 170 kts 183°
2026-05-04 03:29 40.85684 -73.41682 2384 ft 166 kts 191°
2026-05-04 03:29 40.84539 -73.41666 2082 ft 160 kts 188°
2026-05-04 03:29 40.83451 -73.41636 1751 ft 155 kts 189°
2026-05-04 03:30 40.82376 -73.41619 1457 ft 152 kts 188°
2026-05-04 03:30 40.81350 -73.41598 1463 ft 152 kts 188°
2026-05-04 03:30 40.80222 -73.41589 1247 ft 165 kts 186°
2026-05-04 03:30 40.79089 -73.41555 1015 ft 158 kts 185°
2026-05-04 03:31 40.78048 -73.41545 972 ft 147 kts 186°
2026-05-04 03:31 40.77006 -73.41646 632 ft 154 kts 183°
2026-05-04 03:31 40.75994 -73.41521 575 ft 142 kts 173°
2026-05-04 03:31 40.75009 -73.41434 436 ft 141 kts 177°
2026-05-04 03:32 40.74073 -73.41467 255 ft 121 kts 174°
2026-05-04 03:32 40.73434 -73.41450 75 ft 36 kts 179°
2026-05-04 03:32 40.73401 -73.41449 74 ft 0 kts 179°
2026-05-04 03:34 40.72678 -73.41608 77 ft 0 kts 179°